Location: Newark
(34.1333°N, 7.9667°W)
Time: 13:41:38
(UTC+00:00)

S-56A Canister/Altair - Pass Details

Date: 05 December 2021
Orbit: 634 x 2499 km, 38.9° (Epoch: 25 January)

Event Time Altitude Azimuth Distance (km) Brightness Sun altitude
Exits shadow 06:54:37 - 271° (W) 2,597 9.7 -6.1°
Reaches altitude 10° 06:56:18 10° 257° (WSW) 2,100 9.3 -5.8°
Maximum altitude 06:59:04 16° 220° (SW) 1,683 9.1 -5.3°
Drops below altitude 10° 07:01:43 10° 183° (S) 2,000 10.0 -4.8°
Sets 07:04:51 0° 160° (SSE) 2,955 11.3 -4.2°
